sat.trackr.live / text

‹ back to catalog

STARLINK-1741

NORAD 46567 · 2020-070AM

PAYLOAD ACTIVE UNKNOWN

§ Identity

Operator
Country
US
Launch date
2020-10-06
Launch site
AFETR
Launch vehicle
Mass (kg)
RCS (m²)

Purposes: comms

External: N2YO · Heavens-Above · Gunter

§ Orbital elements

Epoch: 2026-05-25T03:29:20.944320Z

Period
91.06 min
Inclination
53.0359°
Eccentricity
0.0008426
Mean motion
15.81332801 rev/d
Perigee alt
321.0 km
Apogee alt
332.3 km
Semi-major
6,704.8 km
B*
8.4971e-4
RAAN
98.5421°
Arg perigee
73.3392°
Mean anomaly
286.8554°
Rev number
31,236

§ Raw data

STARLINK-17411 46567U 20070AM  26145.14538130  .00174482  00000+0  84971-3 0  99972 46567  53.0359  98.5421 0008426  73.3392 286.8554 15.81332801312366

JSON: /api/v1/satellites/46567 · /tle

For live sub-satellite position, see the globe view (requires WebGL).

§ Visibility from observer

Set your observer location to see the next 7 days of passes ≥ 10°. The values pass through the URL so the page stays shareable.

No JS? Fill the form by hand. The geolocation button needs JavaScript.